Location: Cambridge (historical)
(38.6883°N, 119.0140°W)
Time: 17:21:15
(UTC+00:00)

ERS-2 - Pass Details

Date: 29 October 2020
Orbit: 493 x 498 km, 98.6° (Epoch: 23 November)

Event Time Altitude Azimuth Distance (km) Brightness Sun altitude
Rises 12:03:57 0° 148° (SSE) 2,565 6.1 -27.1°
Reaches altitude 10° 12:06:07 10° 139° (SE) 1,686 5.2 -26.7°
Maximum altitude 12:09:28 36° 72° (ENE) 792 3.6 -26.1°
Enters shadow 12:10:39 28° 31° (NNE) 953 3.8 -25.8°
